Weather History for KBYI - April, 2013

Change the Weather History Date:

Tuesday, April 2, 2013

  Actual Average Record
Temperature  
Mean Temperature 50 °F 43 °F  
Max Temperature 65 °F 55 °F 80 °F (1990)
Min Temperature 34 °F 31 °F 17 °F (1953)
Degree Days  
Heating Degree Days 15 22  
Month to date heating degree days 33 44  
Since 1 July heating degree days 5523 5863  
Cooling Degree Days 0 0  
Month to date cooling degree days 0 0  
Year to date cooling degree days 0 0  
Moisture  
Dew Point 37 °F    
Average Humidity 69    
Maximum Humidity 100    
Minimum Humidity 37    
Precipitation  
Precipitation 0.00 in 0.03 in 0.52 in (2003)
Month to date precipitation 0.05 0.06  
Year to date precipitation 1.00 2.77  
Sea Level Pressure  
Sea Level Pressure 30.01 in    
Wind  
Wind Speed 8 mph (WSW)    
Max Wind Speed 20 mph    
Max Gust Speed 26 mph    
Visibility 9 miles    
Events      
T = Trace of Precipitation, MM = Missing Value Source: NWS Daily Summary

Daily Weather History Graph

Daily Weather History Graph

Search for Another Location

Airport or City:

Trip Planner

Search our weather history database for the weather conditions in past years. The results will help you decide how hot, cold, wet, or windy it might be!

Date:

Astronomy

Apr. 02, 2013 Rise Set
Actual Time 7:15 AM MDT 8:02 PM MDT
Civil Twilight 6:46 AM MDT 8:31 PM MDT
Nautical Twilight 6:12 AM MDT 9:05 PM MDT
Astronomical Twilight 5:37 AM MDT 9:40 PM MDT
Moon 2:16 AM MDT (4/2) 12:05 PM MDT (4/2)
Length of Visible Light 13h 44m
Length of Day
12h 47m
Waning Gibbous, 55% of the Moon is Illuminated
Apr 2
Waning Gibbous
Apr 2
Last Quarter
Apr 10
New
Apr 18
First Quarter
Apr 25
Full

Hourly Weather History & Observations

Time (MDT) Temp. Windchill Dew Point Humidity Pressure Visibility Wind Dir Wind Speed Gust Speed Precip Events Conditions
12:53 AM 42.1 °F 37.7 °F 39.0 °F 89% 29.95 in 10.0 mi SW 6.9 mph - N/A   Mostly Cloudy
1:53 AM 39.0 °F - 37.0 °F 93% 29.97 in 10.0 mi Calm Calm - N/A   Clear
2:53 AM 39.0 °F - 37.0 °F 93% 29.97 in 10.0 mi Calm Calm - N/A   Clear
3:53 AM 37.9 °F 35.5 °F 36.0 °F 93% 29.97 in 10.0 mi SW 3.5 mph - N/A   Overcast
4:53 AM 36.0 °F 33.3 °F 35.1 °F 97% 29.98 in 10.0 mi SSW 3.5 mph - N/A   Overcast
5:53 AM 37.0 °F - 36.0 °F 96% 29.99 in 10.0 mi Calm Calm - N/A   Clear
6:53 AM 35.1 °F 32.2 °F 35.1 °F 100% 30.02 in 3.0 mi SE 3.5 mph - N/A   Clear
6:59 AM 33.8 °F - 33.8 °F 100% 30.03 in 1.5 mi Calm Calm - N/A   Clear
7:11 AM 35.6 °F - 35.6 °F 100% 30.03 in 3.0 mi Calm Calm - N/A   Clear
7:33 AM 35.6 °F - 35.6 °F 100% 30.04 in 2.0 mi Calm Calm - N/A   Clear
7:38 AM 35.6 °F - 35.6 °F 100% 30.04 in 6.0 mi Calm Calm - N/A   Clear
7:53 AM 35.1 °F - 35.1 °F 100% 30.05 in 7.0 mi Calm Calm - N/A   Clear
8:53 AM 45.0 °F 42.6 °F 39.9 °F 82% 30.04 in 10.0 mi West 4.6 mph - N/A   Clear
9:53 AM 50.0 °F - 39.9 °F 68% 30.04 in 10.0 mi West 10.4 mph 17.3 mph N/A   Partly Cloudy
10:53 AM 54.0 °F - 39.9 °F 59% 30.04 in 10.0 mi West 15.0 mph 19.6 mph N/A   Clear
11:53 AM 55.9 °F - 39.9 °F 55% 30.05 in 10.0 mi West 15.0 mph 23.0 mph N/A   Clear
12:53 PM 59.0 °F - 39.9 °F 49% 30.04 in 10.0 mi WSW 16.1 mph 23.0 mph N/A   Clear
1:53 PM 61.0 °F - 39.0 °F 44% 30.02 in 10.0 mi West 11.5 mph 23.0 mph N/A   Clear
2:53 PM 62.1 °F - 39.9 °F 44% 30.00 in 10.0 mi WSW 13.8 mph 26.5 mph N/A   Clear
3:53 PM 63.0 °F - 37.9 °F 40% 29.98 in 10.0 mi West 10.4 mph 19.6 mph N/A   Clear
4:53 PM 63.0 °F - 37.0 °F 38% 29.98 in 10.0 mi West 11.5 mph 20.7 mph N/A   Clear
5:53 PM 63.0 °F - 37.9 °F 40% 29.97 in 10.0 mi West 11.5 mph 18.4 mph N/A   Clear
6:53 PM 63.0 °F - 37.0 °F 38% 29.98 in 10.0 mi West 9.2 mph - N/A   Clear
7:53 PM 59.0 °F - 34.0 °F 39% 29.99 in 10.0 mi West 10.4 mph - N/A   Clear
8:53 PM 53.1 °F - 33.1 °F 47% 30.00 in 10.0 mi WSW 9.2 mph - N/A   Clear
9:53 PM 48.0 °F - 32.0 °F 54% 30.01 in 10.0 mi South 8.1 mph - N/A   Clear
10:53 PM 48.9 °F - 33.1 °F 54% 30.01 in 10.0 mi SSW 11.5 mph - N/A   Clear
11:53 PM 48.0 °F - 33.1 °F 56% 30.01 in 10.0 mi SSW 11.5 mph - N/A   Clear